GW5346 Weather Reports


Display with metric or nautical units.
time (UTC)temp
F
wind
direction
speed
MPH
gust
MPH
rain 1hr
in
rain 24hr
in
rain mn
in
humidity
%
barometer
mb
20260906233057 64 5 4.0 8.0 0.00 0.18 0.10 71 1015.8
20260906231551 64 296 3.0 9.0 0.00 0.18 0.10 71 1015.6
20260906224556 62 329 3.0 8.0 0.00 0.18 0.10 75 1015.9
20260906223054 62 282 5.0 9.0 0.00 0.18 0.10 74 1016.1
20260906221556 61 333 4.0 8.0 0.00 0.18 0.10 76 1016.3
20260906220059 61 272 5.0 9.0 0.00 0.18 0.10 77 1016.5
20260906214553 61 265 7.0 10.0 0.00 0.18 0.10 76 1016.7
20260906213105 61 272 6.0 9.0 0.00 0.18 0.10 75 1016.4
20260906211551 61 269 3.0 8.0 0.00 0.18 0.10 75 1016.4
20260906210100 61 266 6.0 9.0 0.00 0.18 0.10 75 1016.3
20260906204623 60 278 4.0 8.0 0.00 0.18 0.10 76 1016.3
20260906203101 60 265 5.0 8.0 0.00 0.18 0.10 75 1016.4
20260906201606 61 270 4.0 8.0 0.00 0.18 0.10 76 1016.5
20260906200051 61 275 4.0 8.0 0.00 0.18 0.10 75 1016.4
20260906194557 61 286 3.0 7.0 0.00 0.18 0.10 75 1016.5
20260906193055 61 55 1.0 3.0 0.00 0.18 0.10 75 1016.6
20260906191553 61 55 1.0 3.0 0.00 0.18 0.10 76 1016.9
20260906184558 60 38 4.0 11.0 0.00 0.18 0.10 77 1017.0
20260906183056 60 34 7.0 12.0 0.00 0.18 0.10 78 1017.2
20260906181556 59 40 11.0 14.0 0.00 0.18 0.10 81 1017.1
20260906180119 59 28 12.0 19.0 0.00 0.18 0.10 81 1017.1
20260906174604 58 26 13.0 20.0 0.00 0.18 0.10 83 1016.9
20260906173053 58 9 15.0 20.0 0.00 0.18 0.10 80 1017.5
20260906171552 58 5 13.0 18.0 0.00 0.18 0.10 82 1017.7
20260906170106 58 340 12.0 18.0 0.00 0.18 0.10 85 1018.1
20260906164556 56 360 10.0 13.0 0.00 0.18 0.10 90 1017.9
20260906163053 55 18 9.0 11.0 0.00 0.18 0.10 90 1018.1
20260906161556 54 295 1.0 4.0 0.00 0.18 0.10 90 1019.3
20260906160100 54 286 2.0 6.0 0.00 0.18 0.10 91 1019.4
20260906154602 54 299 2.0 4.0 0.00 0.18 0.10 90 1018.9
20260906153056 54 343 4.0 9.0 0.00 0.18 0.10 91 1018.9
20260906151603 53 306 1.0 7.0 0.00 0.18 0.10 91 1019.4
20260906150106 53 308 3.0 10.0 0.01 0.18 0.10 91 1019.2
20260906144553 53 297 4.0 14.0 0.04 0.19 0.10 91 1019.3
20260906143112 53 329 6.0 14.0 0.04 0.19 0.10 91 1019.4
20260906141603 53 311 8.0 17.0 0.04 0.19 0.10 91 1019.6
20260906140100 53 313 11.0 19.0 0.03 0.18 0.09 90 1019.7
20260906134606 53 275 16.0 24.0 0.00 0.16 0.06 89 1019.9
20260906133111 54 273 14.0 19.0 0.00 0.16 0.06 89 1019.7
20260906131605 55 286 10.0 13.0 0.00 0.16 0.06 88 1019.5
20260906130105 55 360 4.0 6.0 0.00 0.16 0.06 87 1018.7
20260906124601 55 342 1.0 6.0 0.00 0.17 0.06 87 1019.2
20260906123101 55 322 4.0 9.0 0.00 0.17 0.06 86 1019.4
20260906121555 55 336 6.0 14.0 0.00 0.17 0.06 87 1019.5
20260906120121 55 332 13.0 18.0 0.00 0.17 0.06 88 1019.2
20260906114617 55 294 8.0 16.0 0.00 0.18 0.06 88 1019.2
20260906113059 54 335 10.0 16.0 0.00 0.18 0.06 89 1019.6
20260906111607 55 285 15.0 28.0 0.00 0.18 0.06 88 1019.8
20260906110053 55 325 1.0 3.0 0.00 0.18 0.06 88 1019.1
20260906104602 56 44 4.0 12.0 0.00 0.18 0.06 88 1018.7
20260906103055 55 47 6.0 12.0 0.00 0.18 0.06 88 1018.6
20260906101554 55 95 2.0 4.0 0.00 0.18 0.06 88 1019.0
20260906100059 55 0 0.0 11.0 0.00 0.18 0.06 88 1019.4
20260906094602 55 27 10.0 15.0 0.00 0.18 0.06 88 1019.2
20260906093057 55 22 12.0 21.0 0.00 0.18 0.06 88 1019.2
20260906091553 55 34 13.0 21.0 0.00 0.18 0.06 89 1019.0
20260906090100 55 19 19.0 25.0 0.00 0.18 0.06 91 1019.1
20260906084557 54 19 16.0 22.0 0.00 0.18 0.06 91 1019.1
20260906083055 54 5 14.0 18.0 0.03 0.18 0.06 91 1019.5
20260906081557 54 317 6.0 13.0 0.06 0.18 0.06 91 1020.6
20260906080056 54 323 6.0 14.0 0.06 0.18 0.06 90 1020.9
20260906074558 54 303 10.0 17.0 0.06 0.18 0.06 90 1020.9
20260906073055 54 290 12.0 20.0 0.03 0.15 0.03 89 1021.4
20260906071553 54 331 13.0 20.0 0.00 0.12 0.00 89 1019.9
20260906070104 54 360 16.0 22.0 0.00 0.12 0.00 90 1020.0
20260906064556 55 313 8.0 16.0 0.00 0.12 0.00 90 1021.1
20260906063056 55 350 13.0 17.0 0.06 0.12 0.00 90 1020.4
20260906061556 54 349 12.0 18.0 0.06 0.12 0.00 90 1020.7
20260906060053 55 314 12.0 18.0 0.06 0.12 0.00 89 1021.0
20260906054616 55 309 13.0 19.0 0.05 0.11 0.11 88 1021.3
20260906053054 55 284 10.0 18.0 0.00 0.06 0.06 87 1021.9
20260906051553 55 332 15.0 19.0 0.00 0.06 0.06 87 1020.8
20260906050107 56 312 9.0 14.0 0.00 0.06 0.06 87 1021.0
20260906044600 56 333 10.0 16.0 0.00 0.06 0.06 87 1020.8
20260906043054 56 331 11.0 15.0 0.00 0.06 0.06 86 1020.4
20260906041605 56 329 8.0 13.0 0.00 0.06 0.06 86 1020.8
20260906040109 57 349 10.0 14.0 0.01 0.06 0.06 85 1020.1
20260906034556 57 332 11.0 14.0 0.02 0.06 0.06 84 1020.4
20260906033056 57 290 7.0 18.0 0.02 0.06 0.06 84 1020.5
20260906031614 57 5 21.0 26.0 0.02 0.06 0.06 82 1018.2
20260906030059 60 276 3.0 12.0 0.01 0.05 0.05 76 1021.4
20260906024605 61 306 8.0 12.0 0.00 0.04 0.04 70 1020.2
20260906023100 62 293 9.0 16.0 0.00 0.04 0.04 67 1018.9
20260906021552 62 332 12.0 17.0 0.00 0.04 0.04 66 1018.3
20260906014555 63 350 11.0 16.0 0.00 0.04 0.04 63 1018.5
20260906013056 64 350 12.0 18.0 0.00 0.04 0.04 62 1018.5
20260906011553 65 352 14.0 19.0 0.00 0.04 0.04 60 1018.4
20260906010054 65 352 14.0 20.0 0.00 0.04 0.04 60 1018.2
20260906004550 66 9 12.0 19.0 0.00 0.04 0.04 57 1018.4
20260906003054 67 11 13.0 17.0 0.00 0.04 0.04 55 1018.2
20260906001553 67 360 9.0 14.0 0.00 0.04 0.04 54 1018.5
20260906000108 67 345 10.0 15.0 0.00 0.04 0.04 54 1018.6
20260905234602 68 360 12.0 18.0 0.00 0.04 0.04 53 1018.5